Flight Track Log - Related Links

Times and Time Zones

All times are in EDT time to prevent confusion due to time zone crossing. See the AAL1459 flight status page for this flight to view local times or setup timezone preferences in your user account.

Time Position Orientation Groundspeed Altitude Reporting Facility
EDT Latitude Longitude Course Direction KTS MPH feet Rate Location/Type
Fri 07:40:38 PM 41.9333 -87.9167 261° West 186 214 2,300  Level Chicago TRACON
Fri 07:41:33 PM 41.9000 -87.9667 228° Southwest 225 259 3,700 2,265 Climbing Chicago TRACON
Fri 07:43:00 PM 41.9286 -88.3572 255° West  Level FlightAware Approximate
Fri 07:44:00 PM 41.9116 -88.5103 261° West  Level FlightAware Approximate
Fri 07:44:02 PM 41.8881 -88.1892 266° West 288 331 10,000  Level Chicago Center
Fri 07:45:00 PM 41.8935 -88.6640 261° West  Level FlightAware Approximate
Fri 07:45:04 PM 41.8989 -88.3250 276° West 303 349 11,900  Level Chicago Center
Fri 07:46:00 PM 41.8755 -88.8185 261° West  Level FlightAware Approximate
Fri 07:46:06 PM 41.9047 -88.4625 273° West 362 417 13,900  Level Chicago Center
Fri 07:47:08 PM 41.9044 -88.6069 270° West 386 444 16,000 1,839 Climbing Chicago Center
Fri 07:48:10 PM 41.9044 -88.7583 270° West 404 465 17,700 1,935 Climbing Chicago Center
Fri 07:49:12 PM 41.8917 -88.9467 265° West 424 488 20,000 1,935 Climbing Chicago Center
Fri 07:50:14 PM 41.8794 -89.1056 264° West 433 498 21,700 1,694 Climbing Chicago Center
Fri 07:51:16 PM 41.8653 -89.2700 263° West 445 512 23,500 1,392 Climbing Chicago Center
Fri 07:52:19 PM 41.8525 -89.4356 264° West 450 518 24,600 1,008 Climbing Chicago Center
Fri 07:53:21 PM 41.8389 -89.6081 264° West 464 534 25,600 1,210 Climbing Chicago Center
Fri 07:54:23 PM 41.8231 -89.8214 264° West 483 556 27,100 1,500 Climbing Chicago Center
Fri 07:55:25 PM 41.8075 -90.0044 264° West 485 558 28,700 1,645 Climbing Chicago Center
Fri 07:56:27 PM 41.7822 -90.1903 260° West 482 555 30,500 1,500 Climbing Chicago Center
Fri 07:57:29 PM 41.7583 -90.3667 260° West 485 558 31,800 1,258 Climbing Chicago Center
Fri 07:58:31 PM 41.7358 -90.5417 260° West 479 551 33,100 1,016 Climbing Chicago Center
Fri 07:59:33 PM 41.7153 -90.7033 260° West 476 548 33,900 435 Climbing Chicago Center
Fri 08:00:35 PM 41.6872 -90.9136 260° West 480 552 34,000 242 Climbing Chicago Center
Fri 08:01:37 PM 41.6633 -91.0875 260° West 479 551 34,400 672 Climbing Chicago Center
Fri 08:02:40 PM 41.6403 -91.2611 260° West 478 550 35,400 768 Climbing Chicago Center
Fri 08:03:42 PM 41.6161 -91.4339 259° West 477 549 36,000 290 Climbing Chicago Center
Fri 08:04:44 PM 41.5917 -91.6086 259° West 479 551 36,000  Level Chicago Center
Fri 08:05:46 PM 41.5625 -91.8142 259° West 475 547 36,000  Level Chicago Center
Fri 08:06:48 PM 41.5378 -91.9856 259° West 472 543 36,000  Level Chicago Center
Fri 08:07:50 PM 41.5131 -92.1575 259° West 475 547 36,000  Level Chicago Center
Fri 08:08:52 PM 41.4883 -92.3289 259° West 474 545 36,000  Level Chicago Center
Fri 08:09:54 PM 41.4592 -92.5272 259° West 472 543 36,000  Level Chicago Center
Fri 08:10:51 PM 41.4381 -92.6642 258° West 473 544 36,000  Level Minneapolis Center
Fri 08:11:53 PM 41.4075 -92.8669 259° West 471 542 36,000  Level Minneapolis Center
Fri 08:12:55 PM 41.3817 -93.0344 258° West 470 541 36,000  Level Minneapolis Center
Fri 08:13:57 PM 41.3564 -93.2025 259° West 469 540 36,000  Level Minneapolis Center
Fri 08:14:59 PM 41.3292 -93.3683 258° West 466 536 36,000  Level Minneapolis Center
Fri 08:16:01 PM 41.3033 -93.5361 258° West 468 539 36,000  Level Minneapolis Center
Fri 08:17:03 PM 41.2703 -93.7381 258° West 469 540 36,000  Level Minneapolis Center
Fri 08:18:05 PM 41.2458 -93.8986 259° West 463 533 36,000  Level Minneapolis Center
Fri 08:19:07 PM 41.2200 -94.0669 259° West 468 539 36,000  Level Minneapolis Center
Fri 08:20:09 PM 41.1900 -94.2450 257° West 474 545 36,000  Level Minneapolis Center
Fri 08:21:11 PM 41.1614 -94.4156 257° West 474 545 36,000  Level Minneapolis Center
Fri 08:22:13 PM 41.1336 -94.5853 258° West 473 544 36,000  Level Minneapolis Center
Fri 08:23:15 PM 41.0969 -94.7883 257° West 472 543 36,000  Level Minneapolis Center
Fri 08:24:17 PM 41.0678 -94.9572 257° West 471 542 36,000  Level Minneapolis Center
Fri 08:25:19 PM 41.0389 -95.1258 257° West 469 540 36,000  Level Minneapolis Center
Fri 08:26:21 PM 41.0097 -95.2944 257° West 468 539 36,000  Level Minneapolis Center
Fri 08:27:23 PM 40.9789 -95.4614 256° West 466 536 36,000  Level Minneapolis Center
Fri 08:28:25 PM 40.9489 -95.6289 257° West 465 535 36,000  Level Minneapolis Center
Fri 08:29:27 PM 40.9181 -95.7939 256° West 461 531 36,000  Level Minneapolis Center
Fri 08:30:29 PM 40.8889 -95.9619 257° West 462 532 36,000  Level Minneapolis Center
Fri 08:31:32 PM 40.8525 -96.1622 257° West 465 535 36,000  Level Minneapolis Center
Fri 08:32:34 PM 40.8211 -96.3289 256° West 465 535 36,000  Level Minneapolis Center
Fri 08:33:36 PM 40.7906 -96.4947 256° West 464 534 36,000  Level Minneapolis Center
Fri 08:34:38 PM 40.7600 -96.6594 256° West 462 532 36,000  Level Minneapolis Center
Fri 08:35:40 PM 40.7283 -96.8247 256° West 463 533 36,000  Level Minneapolis Center
Fri 08:36:42 PM 40.6981 -96.9886 256° West 461 531 36,000  Level Minneapolis Center
Fri 08:37:44 PM 40.6647 -97.1494 255° West 457 526 36,000  Level Minneapolis Center
Fri 08:38:46 PM 40.6286 -97.3428 256° West 455 524 36,000  Level Minneapolis Center
Fri 08:39:48 PM 40.5986 -97.5000 256° West 454 522 36,000  Level Minneapolis Center
Fri 08:40:50 PM 40.5653 -97.6619 255° West 456 525 36,000  Level Minneapolis Center
Fri 08:41:52 PM 40.5336 -97.8247 256° West 458 527 36,000  Level Minneapolis Center
Fri 08:42:54 PM 40.5025 -97.9889 256° West 460 529 36,000 435 Level Minneapolis Center
Fri 08:43:56 PM 40.5075 -98.1881 272° West 456 525 36,900 823 Climbing Minneapolis Center
Fri 08:44:58 PM 40.5133 -98.3511 273° West 449 517 37,700 532 Climbing Minneapolis Center
Fri 08:46:00 PM 40.5194 -98.5144 273° West 446 513 38,000 145 Climbing Minneapolis Center
Fri 08:47:02 PM 40.5253 -98.6789 273° West 447 514 38,000  Level Minneapolis Center
Fri 08:48:05 PM 40.5322 -98.8433 273° West 448 516 38,000  Level Minneapolis Center
Fri 08:49:07 PM 40.5383 -99.0072 273° West 447 514 38,000  Level Minneapolis Center
Fri 08:50:09 PM 40.5431 -99.1700 272° West 445 512 38,000  Level Minneapolis Center
Fri 08:51:11 PM 40.5497 -99.3331 273° West 445 512 38,000  Level Minneapolis Center
Fri 08:52:16 PM 40.5547 -99.5269 272° West 444 511 38,000  Level Denver Center
Fri 08:53:18 PM 40.5603 -99.6897 273° West 444 511 38,000  Level Denver Center
Fri 08:54:20 PM 40.5647 -99.8606 272° West 445 512 38,000  Level Denver Center
Fri 08:55:22 PM 40.5689 -100.0158 272° West 446 513 38,000  Level Denver Center
Fri 08:56:23 PM 40.5736 -100.1978 272° West 445 512 38,000  Level Denver Center
Fri 08:57:25 PM 40.5767 -100.3539 272° West 445 512 38,000  Level Denver Center
Fri 08:58:27 PM 40.5806 -100.5353 272° West 441 507 38,000  Level Denver Center
Fri 08:59:28 PM 40.5828 -100.6919 271° West 442 509 38,000  Level Denver Center
Fri 09:00:30 PM 40.5756 -100.8472 267° West 442 509 38,000  Level Denver Center
Fri 09:01:32 PM 40.5447 -101.0222 257° West 436 502 38,000  Level Denver Center
Fri 09:02:34 PM 40.5217 -101.1708 259° West 432 497 38,000  Level Denver Center
Fri 09:03:36 PM 40.4931 -101.3431 258° West 431 496 38,000  Level Denver Center
Fri 09:04:37 PM 40.4706 -101.4906 259° West 429 494 38,000  Level Denver Center
Fri 09:05:39 PM 40.4864 -101.6400 278° West 436 502 38,000  Level Denver Center
Fri 09:06:41 PM 40.5742 -101.7797 310° West 439 505 38,000  Level Denver Center
Fri 09:07:42 PM 40.6550 -101.8958 313° West 446 513 38,000  Level Denver Center
Fri 09:08:44 PM 40.7506 -102.0275 314° West 445 512 38,000  Level Denver Center
Fri 09:09:46 PM 40.8214 -102.1506 307° West 441 507 38,000  Level Denver Center
Fri 09:10:48 PM 40.8894 -102.3022 301° West 431 496 38,000  Level Denver Center
Fri 09:11:49 PM 40.9486 -102.4328 301° West 431 496 38,000  Level Denver Center
Fri 09:12:51 PM 40.9892 -102.5736 291° West 436 502 38,000  Level Denver Center
Fri 09:13:53 PM 41.0153 -102.7417 282° West 422 486 38,000  Level Denver Center
Fri 09:14:55 PM 41.0389 -102.8881 282° West 425 489 38,000  Level Denver Center
Fri 09:15:56 PM 41.0767 -103.0406 288° West 424 488 38,000  Level Denver Center
Fri 09:16:58 PM 41.1147 -103.2069 287° West 423 487 38,000  Level Denver Center
Fri 09:18:00 PM 41.1500 -103.3486 288° West 423 487 38,000  Level Denver Center
Fri 09:19:01 PM 41.1558 -103.4967 273° West 425 489 38,000  Level Denver Center
Fri 09:20:03 PM 41.1603 -103.6714 272° West 425 489 38,000  Level Denver Center
Fri 09:21:05 PM 41.1617 -103.8250 271° West 433 498 38,000  Level Denver Center
Fri 09:22:06 PM 41.1647 -104.0028 271° West 432 497 38,000  Level Denver Center
Fri 09:23:08 PM 41.1678 -104.1578 272° West 437 503 38,000  Level Denver Center
Fri 09:24:10 PM 41.1728 -104.3386 272° West 439 505 38,000  Level Denver Center
Fri 09:25:11 PM 41.1781 -104.4947 273° West 440 506 38,000  Level Denver Center
Fri 09:26:13 PM 41.1586 -104.6467 260° West 441 507 38,000  Level Denver Center
Fri 09:27:15 PM 41.1142 -104.8175 251° West 440 506 38,000  Level Denver Center
Fri 09:28:16 PM 41.0767 -104.9625 251° West 436 502 38,000  Level Denver Center
Fri 09:29:18 PM 41.0336 -105.1308 251° West 434 499 38,000  Level Denver Center
Fri 09:30:20 PM 40.9964 -105.2589 249° West 430 495 38,000  Level Denver Center
Fri 09:31:21 PM 40.9447 -105.4361 249° West 431 496 38,000  Level Denver Center
Fri 09:32:23 PM 40.9025 -105.5853 250° West 435 501 38,000  Level Denver Center
Fri 09:33:25 PM 40.8603 -105.7331 249° West 431 496 38,000  Level Denver Center
Fri 09:34:26 PM 40.8175 -105.8789 249° West 430 495 38,000  Level Denver Center
Fri 09:35:28 PM 40.7764 -106.0275 250° West 431 496 38,000  Level Denver Center
Fri 09:36:30 PM 40.7342 -106.1722 249° West 419 482 38,000  Level Denver Center
Fri 09:37:31 PM 40.6858 -106.3342 249° West 426 490 38,000  Level Denver Center
Fri 09:38:33 PM 40.6461 -106.4739 249° West 425 489 38,000  Level Denver Center
Fri 09:39:34 PM 40.6056 -106.6136 249° West 429 494 38,000  Level Denver Center
Fri 09:40:36 PM 40.5625 -106.7639 249° West 438 504 38,000  Level Denver Center
Fri 09:41:38 PM 40.5236 -106.9481 255° West 444 511 38,000  Level Denver Center
Fri 09:42:39 PM 40.5203 -107.1097 268° West 448 516 38,000  Level Denver Center
Fri 09:43:41 PM 40.5336 -107.2644 277° West 450 518 38,000  Level Denver Center
Fri 09:44:42 PM 40.5508 -107.4397 277° West 442 509 38,000  Level Denver Center
Fri 09:45:44 PM 40.5631 -107.5892 276° West 436 502 38,000  Level Denver Center
Fri 09:46:46 PM 40.5769 -107.7639 276° West 433 498 38,000  Level Denver Center
Fri 09:47:47 PM 40.5897 -107.9144 276° West 433 498 38,000  Level Denver Center
Fri 09:48:49 PM 40.6042 -108.0906 276° West 434 499 38,000  Level Denver Center
Fri 09:49:51 PM 40.6153 -108.2394 276° West 430 495 38,000  Level Denver Center
Fri 09:50:52 PM 40.6294 -108.4150 276° West 431 496 38,000  Level Denver Center
Fri 09:51:54 PM 40.6406 -108.5656 276° West 434 499 38,000  Level Denver Center
Fri 09:52:56 PM 40.6522 -108.7136 276° West 431 496 38,000  Level Denver Center
Fri 09:53:57 PM 40.6653 -108.8875 276° West 429 494 38,000  Level Denver Center
Fri 09:54:59 PM 40.6706 -109.0336 273° West 420 483 38,000  Level Denver Center
Fri 09:56:01 PM 40.6661 -109.2044 268° West 420 483 38,000  Level Denver Center
Fri 09:56:33 PM 40.6650 -109.2783 269° West 421 484 38,000  Level Salt Lake Center
Fri 09:57:35 PM 40.6619 -109.4478 269° West 418 481 38,000  Level Salt Lake Center
Fri 09:58:36 PM 40.6589 -109.5936 268° West 418 481 38,000  Level Salt Lake Center
Fri 09:59:38 PM 40.6558 -109.7386 268° West 416 479 38,000  Level Salt Lake Center
Fri 10:00:40 PM 40.6519 -109.9058 268° West 411 473 38,000  Level Salt Lake Center
Fri 10:01:41 PM 40.6483 -110.0478 268° West 408 470 38,000  Level Salt Lake Center
Fri 10:02:43 PM 40.6439 -110.2128 268° West 405 466 38,000  Level Salt Lake Center
Fri 10:03:44 PM 40.6403 -110.3625 268° West 401 461 38,000  Level Salt Lake Center
Fri 10:04:46 PM 40.6369 -110.5036 268° West 402 463 38,000  Level Salt Lake Center
Fri 10:05:48 PM 40.6317 -110.6431 267° West 400 460 38,000  Level Salt Lake Center
Fri 10:06:49 PM 40.6269 -110.8200 268° West 403 464 38,000  Level Salt Lake Center
Fri 10:07:51 PM 40.6231 -110.9661 268° West 400 460 38,000  Level Salt Lake Center
Fri 10:08:53 PM 40.6172 -111.1125 267° West 400 460 38,000  Level Salt Lake Center
Fri 10:09:55 PM 40.6133 -111.2597 268° West 401 461 38,000  Level Salt Lake Center
Fri 10:10:56 PM 40.6075 -111.4056 267° West 400 460 38,000  Level Salt Lake Center
Fri 10:11:58 PM 40.6022 -111.5542 267° West 406 467 38,000  Level Salt Lake Center
Fri 10:13:00 PM 40.5969 -111.7019 267° West 403 464 38,000  Level Salt Lake Center
Fri 10:14:01 PM 40.5919 -111.8497 267° West 403 464 38,000  Level Salt Lake Center
Fri 10:15:03 PM 40.5861 -111.9967 267° West 405 466 38,000  Level Salt Lake Center
Fri 10:16:05 PM 40.5781 -112.1725 267° West 402 463 38,000  Level Salt Lake Center
Fri 10:17:06 PM 40.5719 -112.3169 267° West 394 453 38,000  Level Salt Lake Center
Fri 10:18:08 PM 40.5661 -112.4614 267° West 394 453 38,000  Level Salt Lake Center
Fri 10:19:10 PM 40.5589 -112.6047 266° West 393 452 38,000  Level Salt Lake Center
Fri 10:20:11 PM 40.5536 -112.7483 267° West 392 451 38,000  Level Salt Lake Center
Fri 10:21:13 PM 40.5467 -112.8931 266° West 396 456 38,000  Level Salt Lake Center
Fri 10:22:15 PM 40.5386 -113.0381 266° West 400 460 38,000  Level Salt Lake Center
Fri 10:23:16 PM 40.5317 -113.1797 266° West 392 451 38,000  Level Salt Lake Center
Fri 10:24:18 PM 40.5214 -113.3556 266° West 401 461 38,000  Level Salt Lake Center
Fri 10:25:20 PM 40.5144 -113.4994 266° West 397 457 38,000  Level Salt Lake Center
Fri 10:26:21 PM 40.5067 -113.6453 266° West 401 461 38,000  Level Salt Lake Center
Fri 10:27:23 PM 40.4989 -113.7906 266° West 400 460 38,000  Level Salt Lake Center
Fri 10:28:25 PM 40.4903 -113.9358 266° West 399 459 38,000  Level Salt Lake Center
Fri 10:29:26 PM 40.4806 -114.0819 265° West 402 463 38,000  Level Salt Lake Center
Fri 10:30:28 PM 40.4722 -114.2283 266° West 402 463 38,000  Level Salt Lake Center
Fri 10:31:30 PM 40.4639 -114.3767 266° West 406 467 38,000  Level Salt Lake Center
Fri 10:32:31 PM 40.4533 -114.5558 266° West 411 473 38,000  Level Salt Lake Center
Fri 10:33:33 PM 40.4453 -114.7050 266° West 411 473 38,000  Level Salt Lake Center
Fri 10:34:35 PM 40.4350 -114.8567 265° West 412 474 38,000  Level Salt Lake Center
Fri 10:35:36 PM 40.4236 -115.0017 264° West 415 478 38,000  Level Salt Lake Center
Fri 10:36:38 PM 40.4133 -115.1722 266° West 420 483 38,000  Level Salt Lake Center
Fri 10:37:40 PM 40.4031 -115.3169 265° West 418 481 38,000  Level Salt Lake Center
Fri 10:38:42 PM 40.3897 -115.4856 264° West 416 479 38,000  Level Salt Lake Center
Fri 10:39:43 PM 40.3803 -115.6281 265° West 412 474 38,000  Level Salt Lake Center
Fri 10:40:45 PM 40.3694 -115.7703 264° West 410 472 38,000  Level Salt Lake Center
Fri 10:41:46 PM 40.3539 -115.9358 263° West 408 470 38,000  Level Salt Lake Center
Fri 10:42:48 PM 40.3447 -116.0769 265° West 406 467 38,000  Level Salt Lake Center
Fri 10:43:50 PM 40.3317 -116.2408 264° West 406 467 38,000  Level Salt Lake Center
Fri 10:44:51 PM 40.3200 -116.3814 264° West 406 467 38,000  Level Salt Lake Center
Fri 10:45:53 PM 40.3089 -116.5200 264° West 402 463 38,000  Level Salt Lake Center
Fri 10:46:55 PM 40.2950 -116.6847 264° West 403 464 38,000  Level Salt Lake Center
Fri 10:47:56 PM 40.2808 -116.8292 263° West 409 471 38,000  Level Salt Lake Center
Fri 10:48:58 PM 40.2706 -116.9761 265° West 414 476 38,000  Level Salt Lake Center
Fri 10:50:00 PM 40.2572 -117.1417 264° West 407 468 38,000  Level Salt Lake Center
Fri 10:51:01 PM 40.2450 -117.2814 264° West 404 465 38,000  Level Salt Lake Center
Fri 10:52:03 PM 40.2314 -117.4442 264° West 402 463 38,000  Level Salt Lake Center
Fri 10:53:04 PM 40.2194 -117.5850 264° West 405 466 38,000  Level Salt Lake Center
Fri 10:54:06 PM 40.2072 -117.7247 264° West 405 466 38,000  Level Salt Lake Center
Fri 10:55:08 PM 40.1911 -117.8883 263° West 405 466 38,000 -98 Level Salt Lake Center
Fri 10:56:09 PM 40.1769 -118.0303 263° West 409 471 37,800 -1,122 Descending Salt Lake Center
Fri 10:57:11 PM 40.1619 -118.1964 263° West 413 475 35,700 -2,195 Descending Salt Lake Center
Fri 10:58:12 PM 40.1478 -118.3419 263° West 419 482 33,300 -2,537 Descending Salt Lake Center
Fri 10:59:14 PM 40.1306 -118.5206 263° West 440 506 30,500 -2,488 Descending Salt Lake Center
Fri 11:00:15 PM 40.0761 -118.6431 240° Southwest 448 516 28,200 -2,390 Descending Salt Lake Center
Fri 11:01:17 PM 39.9828 -118.7542 222° Southwest 452 520 25,600 -2,927 Descending Salt Lake Center
Fri 11:02:18 PM 39.8719 -118.8883 223° Southwest 456 525 22,200 -3,024 Descending Salt Lake Center
Fri 11:03:20 PM 39.7839 -118.9956 223° Southwest 442 509 19,400 -2,613 Descending Salt Lake Center
Fri 11:04:22 PM 39.6994 -119.0975 223° Southwest 423 487 16,800 -2,507 Descending Salt Lake Center
Fri 11:05:46 PM 39.5872 -119.2331 223° Southwest 398 458 13,300 -1,986 Descending Oakland Center
Fri 11:06:47 PM 39.5128 -119.3247 224° Southwest 380 437 12,000 -639 Descending Oakland Center
Fri 11:07:48 PM 39.4403 -119.4106 222° Southwest 361 415 12,000  Level Oakland Center
Fri 11:08:49 PM 39.3803 -119.4850 224° Southwest 309 356 12,000 -639 Level Oakland Center
Fri 11:09:50 PM 39.3222 -119.5556 223° Southwest 296 341 10,700 -1,033 Descending Oakland Center
Fri 11:10:51 PM 39.2556 -119.6358 223° Southwest 284 327 9,900 -780 Descending Oakland Center
Fri 11:11:53 PM 39.2314 -119.7033 245° Southwest 241 277 9,100 -390 Descending Oakland Center
Fri 11:12:54 PM 39.2653 -119.7644 306° West 234 269 9,100  Level Oakland Center

Login

Don't have an account? Register now (free) for customized features, flight alerts, and more!